{"data":{"norad_id":61518,"epoch":"2026-09-21T10:10:49.549440Z","epoch_age_seconds":112418,"freshness":"FRESH","line1":"1 61518U 24183K   26264.42418460 -.00000240  00000+0  40413-5 0  9991","line2":"2 61518  53.1616 311.6187 0001520  73.2392 286.8776 15.31703227109641","mean_motion":15.31703227,"eccentricity":0.000152,"inclination_deg":53.1616,"raan_deg":311.6187,"arg_perigee_deg":73.2392,"mean_anomaly_deg":286.8776,"bstar":4.0413e-6,"rev_number":10964,"period_min":94.012989893636,"perigee_km":469.68934788235,"apogee_km":471.77140356456,"semimajor_km":6848.8673757235,"source":"CELESTRAK","updated_at":"2026-09-22T09:00:49.356518Z"}}